When you browse on this site, cookies collect data to enhance your experience and personalize the content and advertising you see.
Visit our Privacy Policy to learn more. By continuing to use the site, you agree to this use of cookies and data.

Meteo pe oră la Dorchester

Astăzi, 9 August, Duminică

Timp Temperatura Precipitaţii Vânt Presiune Umiditate
00:00 +18°C° 0 mm 4 m/s 760 mmHg 90%
01:00 +18°C° 0 mm 4 m/s 760 mmHg 90%
02:00 +18°C° 0 mm 4 m/s 760 mmHg 91%
03:00 +17°C° 0 mm 5 m/s 760 mmHg 91%
04:00 +17°C° 0 mm 5 m/s 760 mmHg 90%
05:00 +17°C° 0 mm 5 m/s 759 mmHg 89%
06:00 +18°C° 0 mm 4 m/s 760 mmHg 87%
07:00 +19°C° 0 mm 4 m/s 760 mmHg 84%
08:00 +21°C° 0 mm 4 m/s 760 mmHg 80%
09:00 +22°C° 0 mm 4 m/s 760 mmHg 77%
10:00 +25°C° 0 mm 4 m/s 759 mmHg 70%
11:00 +27°C° 0 mm 4 m/s 759 mmHg 64%
12:00 +28°C° 0 mm 3 m/s 759 mmHg 60%
13:00 +29°C° 0 mm 3 m/s 759 mmHg 56%
14:00 +30°C° 0 mm 2 m/s 758 mmHg 52%
15:00 +31°C° 0 mm 2 m/s 758 mmHg 48%
16:00 +31°C° 0 mm 2 m/s 758 mmHg 52%
17:00 +30°C° 0 mm 2 m/s 758 mmHg 56%
18:00 +29°C° 0 mm 2 m/s 757 mmHg 59%
19:00 +27°C° 0 mm 3 m/s 757 mmHg 67%
20:00 +25°C° 0 mm 3 m/s 757 mmHg 75%
21:00 +22°C° 0 mm 4 m/s 757 mmHg 82%
22:00 +22°C° 0 mm 4 m/s 757 mmHg 85%
23:00 +21°C° 0 mm 4 m/s 757 mmHg 88%

Mâine, 10 August, Luni

Timp Temperatura Precipitaţii Vânt Presiune Umiditate
00:00 +20°C° 0 mm 4 m/s 757 mmHg 91%
01:00 +20°C° 0 mm 4 m/s 757 mmHg 92%
02:00 +19°C° 0 mm 4 m/s 756 mmHg 93%
03:00 +19°C° 0 mm 4 m/s 756 mmHg 94%
04:00 +19°C° 0 mm 4 m/s 756 mmHg 93%
05:00 +19°C° 0 mm 4 m/s 756 mmHg 91%
06:00 +19°C° 0 mm 4 m/s 755 mmHg 90%
07:00 +20°C° 0 mm 4 m/s 756 mmHg 85%
08:00 +22°C° 0 mm 5 m/s 756 mmHg 80%
09:00 +25°C° 0 mm 5 m/s 756 mmHg 75%
10:00 +26°C° 0 mm 5 m/s 756 mmHg 70%
11:00 +28°C° 0 mm 4 m/s 756 mmHg 64%
12:00 +30°C° 0 mm 4 m/s 756 mmHg 59%
13:00 +32°C° 0 mm 4 m/s 755 mmHg 55%
14:00 +33°C° 0 mm 4 m/s 755 mmHg 51%
15:00 +34°C° 0 mm 4 m/s 755 mmHg 47%
16:00 +33°C° 0 mm 4 m/s 755 mmHg 51%
17:00 +32°C° 0 mm 4 m/s 755 mmHg 54%
18:00 +30°C° 0 mm 4 m/s 755 mmHg 58%
19:00 +28°C° 0 mm 3 m/s 755 mmHg 64%
20:00 +26°C° 0 mm 3 m/s 755 mmHg 70%
21:00 +24°C° 0 mm 3 m/s 755 mmHg 76%
22:00 +23°C° 0 mm 2 m/s 755 mmHg 78%
23:00 +21°C° 0 mm 2 m/s 756 mmHg 81%

Poimâine, 11 August, Marţi

Timp Temperatura Precipitaţii Vânt Presiune Umiditate
00:00 +22°C° 0 mm 1 m/s 756 mmHg 84%
01:00 +21°C° 0.2 mm 1 m/s 756 mmHg 85%
02:00 +21°C° 0.2 mm 1 m/s 756 mmHg 87%
03:00 +21°C° 0.2 mm 1 m/s 755 mmHg 88%
04:00 +21°C° 0.1 mm 1 m/s 755 mmHg 87%
05:00 +21°C° 0.1 mm 2 m/s 755 mmHg 86%
06:00 +21°C° 0.1 mm 2 m/s 755 mmHg 86%
07:00 +24°C° 0 mm 2 m/s 755 mmHg 79%
08:00 +26°C° 0 mm 1 m/s 756 mmHg 73%
09:00 +27°C° 0 mm 1 m/s 756 mmHg 66%
10:00 +29°C° 0 mm 1 m/s 756 mmHg 61%
11:00 +31°C° 0 mm 2 m/s 756 mmHg 55%
12:00 +32°C° 0 mm 2 m/s 756 mmHg 49%
13:00 +34°C° 0 mm 2 m/s 756 mmHg 47%
14:00 +35°C° 0 mm 3 m/s 756 mmHg 44%
15:00 +35°C° 0 mm 3 m/s 756 mmHg 41%
16:00 +34°C° 0 mm 3 m/s 755 mmHg 45%
17:00 +34°C° 0 mm 2 m/s 755 mmHg 48%
18:00 +32°C° 0 mm 2 m/s 755 mmHg 52%
19:00 +30°C° 0 mm 2 m/s 755 mmHg 59%
20:00 +28°C° 0 mm 2 m/s 755 mmHg 67%
21:00 +26°C° 0 mm 2 m/s 755 mmHg 74%
22:00 +25°C° 0 mm 2 m/s 755 mmHg 78%
23:00 +24°C° 0 mm 1 m/s 755 mmHg 82%

12 August, Miercuri

Timp Temperatura Precipitaţii Vânt Presiune Umiditate
00:00 +23°C° 0 mm 1 m/s 755 mmHg 86%
01:00 +23°C° 0 mm 1 m/s 755 mmHg 87%
02:00 +22°C° 0 mm 1 m/s 755 mmHg 89%
03:00 +22°C° 0 mm 1 m/s 755 mmHg 91%
04:00 +22°C° 0 mm 1 m/s 755 mmHg 91%
05:00 +22°C° 0 mm 1 m/s 754 mmHg 90%
06:00 +22°C° 0 mm 1 m/s 754 mmHg 90%
07:00 +24°C° 0 mm 1 m/s 754 mmHg 83%
08:00 +26°C° 0 mm 2 m/s 755 mmHg 76%
09:00 +27°C° 0 mm 2 m/s 755 mmHg 69%
10:00 +29°C° 0 mm 2 m/s 755 mmHg 63%
11:00 +30°C° 0 mm 2 m/s 755 mmHg 57%
12:00 +32°C° 0 mm 2 m/s 754 mmHg 51%
13:00 +33°C° 0 mm 1 m/s 754 mmHg 48%
14:00 +34°C° 0 mm 1 m/s 754 mmHg 45%
15:00 +34°C° 0 mm 1 m/s 754 mmHg 42%
16:00 +32°C° 1 mm 2 m/s 753 mmHg 51%
17:00 +30°C° 1 mm 3 m/s 753 mmHg 60%
18:00 +29°C° 1 mm 4 m/s 753 mmHg 69%
19:00 +27°C° 0.9 mm 4 m/s 753 mmHg 75%
20:00 +25°C° 0.9 mm 4 m/s 753 mmHg 81%
21:00 +22°C° 0.9 mm 4 m/s 753 mmHg 87%
22:00 +22°C° 0.3 mm 3 m/s 753 mmHg 89%
23:00 +23°C° 0.3 mm 2 m/s 752 mmHg 91%

13 August, Joi

Timp Temperatura Precipitaţii Vânt Presiune Umiditate
00:00 +21°C° 0.3 mm 2 m/s 752 mmHg 94%
01:00 +21°C° 0 mm 2 m/s 752 mmHg 93%
02:00 +22°C° 0 mm 1 m/s 751 mmHg 93%
03:00 +22°C° 0 mm 1 m/s 751 mmHg 93%
04:00 +22°C° 0 mm 1 m/s 751 mmHg 93%
05:00 +22°C° 0 mm 1 m/s 751 mmHg 93%
06:00 +22°C° 0 mm 1 m/s 751 mmHg 92%
07:00 +23°C° 0 mm 1 m/s 751 mmHg 88%
08:00 +24°C° 0 mm 1 m/s 751 mmHg 83%
09:00 +25°C° 0 mm 2 m/s 751 mmHg 79%
10:00 +26°C° 0.1 mm 2 m/s 751 mmHg 76%
11:00 +26°C° 0.1 mm 2 m/s 751 mmHg 73%
12:00 +27°C° 0.1 mm 2 m/s 751 mmHg 70%
13:00 +26°C° 0.7 mm 3 m/s 751 mmHg 70%
14:00 +26°C° 0.7 mm 3 m/s 750 mmHg 70%
15:00 +26°C° 0.7 mm 3 m/s 750 mmHg 70%
16:00 +26°C° 0.3 mm 3 m/s 750 mmHg 70%
17:00 +25°C° 0.3 mm 3 m/s 750 mmHg 70%
18:00 +25°C° 0.3 mm 2 m/s 750 mmHg 70%
19:00 +24°C° 0.1 mm 2 m/s 750 mmHg 75%
20:00 +23°C° 0.1 mm 2 m/s 750 mmHg 80%
21:00 +21°C° 0.1 mm 1 m/s 750 mmHg 85%
22:00 +21°C° 0.2 mm 1 m/s 750 mmHg 87%
23:00 +21°C° 0.2 mm 1 m/s 750 mmHg 88%

14 August, Vineri

Timp Temperatura Precipitaţii Vânt Presiune Umiditate
00:00 +21°C° 0.2 mm 1 m/s 750 mmHg 90%
01:00 +20°C° 0.1 mm 1 m/s 750 mmHg 91%
02:00 +19°C° 0.1 mm 2 m/s 750 mmHg 92%
03:00 +19°C° 0.1 mm 2 m/s 750 mmHg 94%
04:00 +19°C° 0.2 mm 2 m/s 750 mmHg 94%
05:00 +18°C° 0.2 mm 2 m/s 750 mmHg 94%
06:00 +18°C° 0.2 mm 3 m/s 750 mmHg 93%
07:00 +19°C° 0.4 mm 3 m/s 751 mmHg 90%
08:00 +19°C° 0.4 mm 4 m/s 751 mmHg 86%
09:00 +19°C° 0.4 mm 5 m/s 751 mmHg 82%
10:00 +20°C° 0.1 mm 5 m/s 752 mmHg 77%
11:00 +21°C° 0.1 mm 5 m/s 752 mmHg 72%
12:00 +22°C° 0.1 mm 5 m/s 752 mmHg 66%
13:00 +23°C° 0.1 mm 5 m/s 752 mmHg 62%
14:00 +23°C° 0.1 mm 6 m/s 752 mmHg 59%
15:00 +24°C° 0.1 mm 6 m/s 752 mmHg 55%
16:00 +23°C° 0 mm 6 m/s 753 mmHg 57%
17:00 +22°C° 0 mm 5 m/s 753 mmHg 60%
18:00 +21°C° 0 mm 5 m/s 753 mmHg 63%
19:00 +19°C° 0 mm 4 m/s 754 mmHg 68%
20:00 +18°C° 0 mm 4 m/s 754 mmHg 73%
21:00 +16°C° 0 mm 3 m/s 754 mmHg 78%
22:00 +16°C° 0 mm 3 m/s 754 mmHg 80%
23:00 +16°C° 0 mm 2 m/s 754 mmHg 82%
Arată mai mult